Annette Island, AK

3:56 AM AKDT on May 24, 2017 (GMT -0800)
Annette Island

Weather History for PANT - May, 2013

Change the Weather History Date:

Monday, May 20, 2013

  Actual Average Record
Temperature  
Mean Temperature 47 °F 51 °F  
Max Temperature 54 °F 57 °F 80 °F (1963)
Min Temperature 39 °F 45 °F 35 °F (1974)
Degree Days  
Heating Degree Days 18 14  
Month to date heating degree days 308 320  
Since 1 July heating degree days 6296 6265  
Cooling Degree Days 0    
Month to date cooling degree days 0  
Year to date cooling degree days 0  
Moisture  
Dew Point 35 °F    
Average Humidity 0    
Maximum Humidity 0    
Minimum Humidity 0    
Precipitation  
Precipitation T in 0.18 in 1.35 in (1951)
Month to date precipitation 5.81 3.71  
Year to date precipitation 38.29 36.57  
Snow  
Snow 0.00 in 0.00 in 0.00 in (2016)
Month to date snowfall 0.0 0.1  
Since 1 July snowfall 12.8 34.9  
Snow Depth 0.00 in    
Sea Level Pressure  
Sea Level Pressure 30.31 in    
Wind  
Wind Speed 7 mph (NNW)    
Max Wind Speed 15 mph    
Max Gust Speed 20 mph    
Visibility 10 miles    
Events Rain    
T = Trace of Precipitation, MM = Missing Value Source: NWS Daily Summary

Daily Weather History Graph

Daily Weather History Graph

Search for Another Location

Airport or City:

Trip Planner

Search our weather history database for the weather conditions in past years. The results will help you decide how hot, cold, wet, or windy it might be!

Date:

Astronomy

May. 20, 2013 Rise Set
Actual Time 4:29 AM AKDT 8:57 PM AKDT
Civil Twilight 3:39 AM AKDT 9:47 PM AKDT
Nautical Twilight 2:21 AM AKDT 11:06 PM AKDT
Astronomical Twilight 1:15 AM AKDT Sun does not set
Moon 3:27 PM AKDT (5/20) 2:19 AM AKDT (5/20)
Length of Visible Light 18h 07m
Length of Day
16h 27m
Waxing Gibbous, 76% of the Moon is Illuminated
May 20
Waxing Gibbous
May 24
Full
May 31
Last Quarter
Jun 8
New
Jun 16
First Quarter

Hourly Weather History & Observations

Time (AKDT) Temp. Windchill Dew Point Humidity Pressure Visibility Wind Dir Wind Speed Gust Speed Precip Events Conditions
12:05 AM 41.0 °F 39.0 °F 39.2 °F 93% 30.48 in 10.0 mi NNW 3.5 mph - 0.00 in Rain Light Rain
12:53 AM 39.9 °F 37.8 °F 37.9 °F 93% 30.48 in 10.0 mi NW 3.5 mph - 0.00 in   Overcast
1:53 AM 39.9 °F 36.7 °F 37.0 °F 89% 30.47 in 10.0 mi NNW 4.6 mph - N/A   Overcast
2:53 AM 39.9 °F 35.1 °F 37.0 °F 89% 30.45 in 10.0 mi NNW 6.9 mph - N/A   Overcast
3:53 AM 39.9 °F 36.7 °F 37.0 °F 89% 30.44 in 10.0 mi NNW 4.6 mph - N/A   Overcast
4:53 AM 39.9 °F - 37.0 °F 89% 30.43 in 10.0 mi Calm Calm - N/A   Overcast
5:53 AM 44.1 °F 40.1 °F 36.0 °F 73% 30.41 in 10.0 mi NNW 6.9 mph - N/A   Overcast
6:53 AM 44.1 °F 39.5 °F 34.0 °F 68% 30.40 in 10.0 mi North 8.1 mph - N/A   Overcast
7:53 AM 45.0 °F 40.1 °F 33.1 °F 63% 30.38 in 10.0 mi NNW 9.2 mph - N/A   Overcast
8:53 AM 46.0 °F 40.6 °F 33.1 °F 61% 30.37 in 10.0 mi NW 11.5 mph - N/A   Overcast
9:53 AM 46.9 °F - 32.0 °F 56% 30.35 in 10.0 mi NW 10.4 mph - N/A   Overcast
10:53 AM 48.0 °F - 32.0 °F 54% 30.33 in 10.0 mi NW 10.4 mph 18.4 mph N/A   Scattered Clouds
11:53 AM 48.0 °F - 33.1 °F 56% 30.32 in 10.0 mi NNW 9.2 mph 17.3 mph N/A   Overcast
12:53 PM 50.0 °F - 33.1 °F 52% 30.30 in 10.0 mi NNW 9.2 mph - N/A   Mostly Cloudy
1:53 PM 52.0 °F - 35.1 °F 53% 30.28 in 10.0 mi NW 10.4 mph 17.3 mph N/A   Mostly Cloudy
2:53 PM 50.0 °F - 35.1 °F 57% 30.26 in 10.0 mi NW 11.5 mph 17.3 mph N/A   Overcast
3:53 PM 50.0 °F - 37.0 °F 61% 30.25 in 10.0 mi NNW 9.2 mph - 0.00 in Rain Light Rain
4:53 PM 50.0 °F - 36.0 °F 59% 30.23 in 10.0 mi WNW 9.2 mph 16.1 mph 0.00 in   Mostly Cloudy
5:53 PM 52.0 °F - 35.1 °F 53% 30.21 in 10.0 mi NW 10.4 mph - N/A   Mostly Cloudy
6:53 PM 48.9 °F - 36.0 °F 61% 30.20 in 10.0 mi NW 6.9 mph - N/A   Scattered Clouds
7:53 PM 48.9 °F - 36.0 °F 61% 30.18 in 10.0 mi NNW 8.1 mph - N/A   Overcast
8:53 PM 48.0 °F - 36.0 °F 63% 30.17 in 10.0 mi NNW 9.2 mph - N/A   Overcast
9:53 PM 46.9 °F - 37.0 °F 68% 30.16 in 10.0 mi NNW 6.9 mph - N/A   Mostly Cloudy
10:53 PM 46.9 °F - 36.0 °F 66% 30.14 in 10.0 mi NNW 9.2 mph - N/A   Overcast
11:53 PM 48.0 °F - 36.0 °F 63% 30.13 in 10.0 mi NNW 8.1 mph - N/A   Overcast